Location: Belmont
(13.0833°N, 59.6000°W)
Time: 10:27:46
(UTC+00:00)

SWIFT - Pass Details

Date: 17 September 2019
Orbit: 545 x 561 km, 20.6° (Epoch: 22 October)

Event Time Altitude Azimuth Distance (km) Brightness Sun altitude
Rises 22:17:53 0° 289° (WNW) 2,706 7.7 -5.6°
Reaches altitude 10° 22:20:12 10° 292° (WNW) 1,810 6.4 -6.2°
Maximum altitude 22:24:22 65° 15° (NNE) 596 2.5 -7.2°
Enters shadow 22:28:29 10° 97° (E) 1,785 4.2 -8.2°
